Home   Weather   Kleppestø   Past weeks

Flag for Norway Past Weather in Kleppestø, Norway — Yesterday and Last 2 Weeks

Now
63 °F

Light rain. Overcast.


Feels Like: 63 °F
Forecast: 55 / 65 °F
Wind: 9 mph from Southeast

Location: Bergen / Florida

Current Time: Aug 17, 2017 at 3:59:27 pm

Latest Report: Aug 17, 2017 at 2:00 pm


Visibility: 16 mi

Pressure: 29.76 "Hg

Humidity: 66%

Dew Point: 51 °F

Location of KleppestøLocation

Past Weather in Kleppestø — Graph

°F

Kleppestø Temperature Yesterday

Maximum temperature yesterday: 64 °F (at 6:00 pm)
Minimum temperature yesterday: 54 °F (at 5:00 am)
Average temperature yesterday: 58 °F

High & Low Weather Summary for the Past Weeks

 TemperatureHumidityPressure
High73 °F (Aug 9, 4:00 pm)90% (Aug 9, 7:00 am)30.16 "Hg (Aug 9, 7:00 am)
Low47 °F (Aug 13, 5:00 am)45% (Aug 15, 12:00 pm)29.35 "Hg (Aug 3, 10:00 pm)
Average58 °F76%29.83 "Hg
* Reported Aug 2 2:00 pm — Aug 17 2:00 pm, Kleppestø. Weather by CustomWeather, © 2017

Note: Actual official high and low records may vary slightly from our data, if they occured in-between our weather recording intervals... More about our weather records

Advertising

Kleppestø Weather History for the Previous 24 Hours

Scroll right to see more
 ConditionsComfort  
Time TempWeatherWind HumidityBarometerVisibility
2:00 pm
Thu, Aug 17
63 °FLight rain. Overcast.9 mph66%29.76 "Hg16 mi
1:00 pm67 °FMild.8 mph50%29.78 "HgN/A
12:00 pm67 °FMild.10 mph50%29.79 "HgN/A
11:00 am66 °FOvercast.9 mph50%29.80 "Hg25 mi
10:00 am67 °FMild.9 mph51%29.82 "HgN/A
9:00 am63 °FMild.8 mph56%29.84 "HgN/A
8:00 am62 °FOvercast.7 mph54%29.85 "Hg19 mi
7:00 am61 °FRefreshingly cool.7 mph51%29.86 "HgN/A
6:00 am60 °FRefreshingly cool.6 mph51%29.88 "HgN/A
5:00 am60 °FRefreshingly cool.6 mph52%29.90 "HgN/A
4:00 am60 °FRefreshingly cool.5 mph56%29.93 "HgN/A
3:00 am59 °FCool.5 mph60%29.94 "HgN/A
2:00 am59 °FCool.5 mph65%29.96 "HgN/A
1:00 am59 °FCool.5 mph67%29.97 "HgN/A
12:00 am58 °FCool.6 mph71%29.98 "HgN/A
11:00 pm
Wed, Aug 16
56 °FPassing clouds.3 mph78%30.00 "Hg28 mi
10:00 pm57 °FCool.2 mph76%30.01 "HgN/A
9:00 pm60 °FCool.5 mph68%30.01 "HgN/A
8:00 pm60 °FPartly sunny.5 mph68%30.01 "Hg28 mi
7:00 pm61 °FCool.6 mph62%30.01 "HgN/A
6:00 pm64 °FMild.5 mph58%30.00 "HgN/A
5:00 pm63 °FScattered clouds.6 mph57%30.01 "Hg31 mi
4:00 pm63 °FMild.5 mph64%30.01 "HgN/A
3:00 pm63 °FMild.5 mph65%30.01 "HgN/A
Weather by CustomWeather, © 2017

See weather overviewHow to use our weather pages